| time (UTC) | temp F | wind direction | speed MPH | gust MPH | rain 1hr in | rain 24hr in | rain mn in | humidity % | barometer mb |
| 20260506012557 | 46 | 89 | 0.0 | 0.0 | 0.00 | 0.00 | 0.00 | 99 | 1006.8 |
| 20260506012054 | 46 | 76 | 0.0 | 0.0 | 0.00 | 0.00 | 0.00 | 99 | 1006.9 |
| 20260506011552 | 46 | 102 | 0.0 | 0.0 | 0.00 | 0.00 | 0.00 | 99 | 1006.8 |
| 20260506011048 | 46 | 48 | 0.0 | 0.0 | 0.00 | 0.00 | 0.00 | 99 | 1006.5 |
| 20260506010548 | 46 | 72 | 0.0 | 0.0 | 0.00 | 0.00 | 0.00 | 99 | 1006.4 |
| 20260506010044 | 46 | 59 | 0.0 | 0.0 | 0.00 | 0.00 | 0.00 | 99 | 1007.1 |
| 20260506005541 | 46 | 117 | 0.0 | 0.0 | 0.00 | 0.00 | 0.00 | 99 | 1007.1 |
| 20260506005037 | 46 | 108 | 0.0 | 0.0 | 0.00 | 0.00 | 0.00 | 99 | 1007.1 |
| 20260506004535 | 46 | 101 | 0.0 | 0.0 | 0.00 | 0.00 | 0.00 | 99 | 1007.2 |
| 20260506004031 | 46 | 135 | 0.0 | 0.0 | 0.00 | 0.00 | 0.00 | 99 | 1007.1 |
| 20260506003528 | 46 | 110 | 0.0 | 0.0 | 0.00 | 0.00 | 0.00 | 99 | 1007.0 |
| 20260506003024 | 46 | 143 | 0.0 | 0.0 | 0.00 | 0.00 | 0.00 | 99 | 1007.1 |
| 20260506002520 | 46 | 159 | 0.0 | 0.0 | 0.00 | 0.00 | 0.00 | 99 | 1007.3 |
| 20260506002016 | 46 | 124 | 0.0 | 0.0 | 0.00 | 0.00 | 0.00 | 99 | 1007.1 |
| 20260506001513 | 46 | 127 | 0.0 | 0.0 | 0.00 | 0.00 | 0.00 | 99 | 1006.9 |
| 20260506001010 | 46 | 134 | 0.0 | 0.0 | 0.00 | 0.00 | 0.00 | 99 | 1006.7 |
| 20260506000508 | 46 | 135 | 0.0 | 0.0 | 0.00 | 0.00 | 0.00 | 99 | 1006.7 |
| 20260506000005 | 46 | 129 | 0.0 | 0.0 | 0.00 | 0.00 | 0.00 | 99 | 1007.0 |
| 20260505235503 | 46 | 134 | 0.0 | 0.0 | 0.00 | 0.00 | 0.00 | 99 | 1007.3 |
| 20260505234959 | 46 | 128 | 0.0 | 0.0 | 0.00 | 0.00 | 0.00 | 99 | 1007.2 |
| 20260505234456 | 46 | 87 | 0.0 | 0.0 | 0.00 | 0.00 | 0.00 | 99 | 1007.2 |
| 20260505233953 | 46 | 88 | 0.0 | 0.0 | 0.00 | 0.00 | 0.00 | 99 | 1007.0 |
| 20260505233450 | 46 | 77 | 0.0 | 0.0 | 0.00 | 0.00 | 0.00 | 99 | 1006.9 |
| 20260505232948 | 46 | 99 | 0.0 | 0.0 | 0.00 | 0.00 | 0.00 | 99 | 1006.9 |
| 20260505232446 | 46 | 31 | 0.0 | 0.0 | 0.00 | 0.00 | 0.00 | 99 | 1006.9 |
| 20260505231942 | 46 | 68 | 0.0 | 0.0 | 0.00 | 0.00 | 0.00 | 99 | 1006.9 |
| 20260505231439 | 46 | 80 | 0.0 | 0.0 | 0.00 | 0.00 | 0.00 | 99 | 1007.0 |
| 20260505230938 | 46 | 117 | 0.0 | 0.0 | 0.00 | 0.00 | 0.00 | 99 | 1007.2 |
| 20260505230435 | 46 | 114 | 0.0 | 0.0 | 0.00 | 0.00 | 0.00 | 99 | 1007.2 |
| 20260505225931 | 46 | 94 | 0.0 | 0.0 | 0.00 | 0.00 | 0.00 | 99 | 1007.2 |
| 20260505225429 | 46 | 96 | 0.0 | 0.0 | 0.00 | 0.00 | 0.00 | 99 | 1007.4 |
| 20260505224924 | 46 | 85 | 0.0 | 0.0 | 0.00 | 0.00 | 0.00 | 99 | 1007.4 |
| 20260505224422 | 46 | 69 | 0.0 | 0.0 | 0.00 | 0.00 | 0.00 | 99 | 1007.3 |
| 20260505223919 | 46 | 53 | 0.0 | 0.0 | 0.00 | 0.00 | 0.00 | 99 | 1007.4 |
| 20260505223416 | 46 | 98 | 0.0 | 0.0 | 0.00 | 0.00 | 0.00 | 99 | 1007.2 |
| 20260505222912 | 46 | 54 | 0.0 | 0.0 | 0.00 | 0.00 | 0.00 | 99 | 1007.3 |
| 20260505222408 | 46 | 80 | 0.0 | 0.0 | 0.00 | 0.00 | 0.00 | 99 | 1007.4 |
| 20260505221904 | 46 | 48 | 0.0 | 0.0 | 0.00 | 0.00 | 0.00 | 99 | 1007.3 |
| 20260505221402 | 46 | 0 | 0.0 | 0.0 | 0.00 | 0.00 | 0.00 | 99 | 1007.8 |
| 20260505220859 | 46 | 45 | 0.0 | 0.0 | 0.00 | 0.00 | 0.00 | 99 | 1007.7 |
| 20260505220355 | 46 | 10 | 0.0 | 0.0 | 0.00 | 0.00 | 0.00 | 99 | 1007.4 |
| 20260505215853 | 46 | 9 | 0.0 | 1.0 | 0.00 | 0.00 | 0.00 | 99 | 1007.6 |
| 20260505215351 | 46 | 355 | 1.0 | 1.0 | 0.00 | 0.00 | 0.00 | 99 | 1007.5 |
| 20260505214849 | 47 | 342 | 1.0 | 2.0 | 0.00 | 0.00 | 0.00 | 99 | 1007.6 |
| 20260505214346 | 46 | 319 | 0.0 | 1.0 | 0.00 | 0.00 | 0.00 | 99 | 1007.5 |
| 20260505213843 | 46 | 11 | 0.0 | 1.0 | 0.00 | 0.00 | 0.00 | 99 | 1007.3 |
| 20260505213341 | 46 | 357 | 1.0 | 2.0 | 0.00 | 0.00 | 0.00 | 99 | 1007.4 |
| 20260505212837 | 47 | 5 | 1.0 | 2.0 | 0.00 | 0.00 | 0.00 | 99 | 1007.5 |
| 20260505212334 | 47 | 322 | 2.0 | 2.0 | 0.00 | 0.00 | 0.00 | 99 | 1007.2 |
| 20260505211830 | 47 | 349 | 2.0 | 3.0 | 0.00 | 0.00 | 0.00 | 99 | 1007.2 |
| 20260505211328 | 47 | 333 | 2.0 | 2.0 | 0.00 | 0.00 | 0.00 | 99 | 1007.4 |
| 20260505210824 | 48 | 303 | 2.0 | 2.0 | 0.00 | 0.00 | 0.00 | 99 | 1007.2 |
| 20260505210321 | 48 | 308 | 1.0 | 2.0 | 0.00 | 0.00 | 0.00 | 99 | 1007.3 |
| 20260505205818 | 48 | 352 | 1.0 | 2.0 | 0.00 | 0.00 | 0.00 | 99 | 1007.2 |
| 20260505205316 | 48 | 320 | 1.0 | 2.0 | 0.00 | 0.00 | 0.00 | 99 | 1007.3 |
| 20260505204813 | 48 | 345 | 1.0 | 2.0 | 0.00 | 0.00 | 0.00 | 99 | 1007.2 |
| 20260505204311 | 48 | 320 | 1.0 | 2.0 | 0.00 | 0.00 | 0.00 | 99 | 1007.3 |
| 20260505203808 | 48 | 313 | 2.0 | 3.0 | 0.00 | 0.00 | 0.00 | 99 | 1007.2 |
| 20260505203305 | 48 | 318 | 1.0 | 2.0 | 0.00 | 0.00 | 0.00 | 99 | 1007.3 |
| 20260505202801 | 48 | 309 | 2.0 | 2.0 | 0.00 | 0.00 | 0.00 | 99 | 1007.0 |
| 20260505202257 | 48 | 335 | 2.0 | 3.0 | 0.00 | 0.00 | 0.00 | 99 | 1007.2 |
| 20260505201754 | 48 | 323 | 1.0 | 2.0 | 0.00 | 0.00 | 0.00 | 99 | 1007.1 |
| 20260505201251 | 48 | 303 | 2.0 | 3.0 | 0.00 | 0.00 | 0.00 | 99 | 1007.0 |
| 20260505200749 | 49 | 344 | 2.0 | 2.0 | 0.00 | 0.00 | 0.00 | 99 | 1007.0 |
| 20260505200246 | 49 | 337 | 2.0 | 2.0 | 0.00 | 0.00 | 0.00 | 99 | 1006.8 |
| 20260505195741 | 49 | 328 | 2.0 | 2.0 | 0.00 | 0.00 | 0.00 | 99 | 1006.8 |
| 20260505195238 | 49 | 4 | 1.0 | 2.0 | 0.00 | 0.00 | 0.00 | 99 | 1006.8 |
| 20260505194730 | 49 | 334 | 1.0 | 2.0 | 0.00 | 0.00 | 0.00 | 99 | 1006.5 |
| 20260505194227 | 49 | 79 | 0.0 | 0.0 | 0.00 | 0.00 | 0.00 | 99 | 1006.6 |
| 20260505193722 | 49 | 328 | 1.0 | 1.0 | 0.00 | 0.00 | 0.00 | 99 | 1006.6 |
| 20260505193220 | 49 | 359 | 0.0 | 0.0 | 0.00 | 0.00 | 0.00 | 99 | 1006.6 |
| 20260505192719 | 50 | 325 | 1.0 | 2.0 | 0.00 | 0.00 | 0.00 | 99 | 1006.7 |
| 20260505192216 | 50 | 335 | 0.0 | 1.0 | 0.00 | 0.00 | 0.00 | 99 | 1006.6 |
| 20260505191714 | 50 | 346 | 0.0 | 0.0 | 0.00 | 0.00 | 0.00 | 99 | 1006.8 |
| 20260505191212 | 50 | 32 | 0.0 | 0.0 | 0.00 | 0.00 | 0.00 | 98 | 1006.5 |
| 20260505190708 | 50 | 347 | 0.0 | 0.0 | 0.00 | 0.00 | 0.00 | 98 | 1006.7 |
| 20260505190207 | 50 | 26 | 0.0 | 0.0 | 0.00 | 0.00 | 0.00 | 99 | 1006.5 |
| 20260505185705 | 50 | 15 | 0.0 | 0.0 | 0.00 | 0.00 | 0.00 | 99 | 1006.3 |
| 20260505185201 | 50 | 15 | 0.0 | 0.0 | 0.00 | 0.00 | 0.00 | 99 | 1006.5 |
| 20260505184657 | 50 | 89 | 0.0 | 0.0 | 0.00 | 0.00 | 0.00 | 99 | 1006.7 |
| 20260505184155 | 50 | 41 | 0.0 | 0.0 | 0.00 | 0.00 | 0.00 | 99 | 1006.7 |
| 20260505183651 | 49 | 71 | 0.0 | 0.0 | 0.00 | 0.00 | 0.00 | 98 | 1006.9 |
| 20260505183149 | 49 | 49 | 0.0 | 0.0 | 0.00 | 0.00 | 0.00 | 98 | 1006.8 |
| 20260505182645 | 49 | 24 | 0.0 | 0.0 | 0.00 | 0.00 | 0.00 | 97 | 1007.0 |
| 20260505182142 | 49 | 48 | 0.0 | 0.0 | 0.00 | 0.00 | 0.00 | 97 | 1006.9 |
| 20260505181638 | 49 | 33 | 0.0 | 0.0 | 0.00 | 0.00 | 0.00 | 97 | 1007.1 |
| 20260505181136 | 49 | 80 | 0.0 | 0.0 | 0.00 | 0.00 | 0.00 | 97 | 1007.2 |
| 20260505180632 | 49 | 71 | 0.0 | 0.0 | 0.00 | 0.00 | 0.00 | 97 | 1007.1 |
| 20260505180130 | 49 | 118 | 0.0 | 0.0 | 0.00 | 0.00 | 0.00 | 97 | 1007.1 |
| 20260505175625 | 49 | 126 | 0.0 | 0.0 | 0.00 | 0.00 | 0.00 | 96 | 1007.2 |
| 20260505175122 | 50 | 130 | 0.0 | 0.0 | 0.00 | 0.00 | 0.00 | 96 | 1007.3 |
| 20260505174618 | 50 | 133 | 0.0 | 0.0 | 0.00 | 0.00 | 0.00 | 96 | 1007.3 |
| 20260505174115 | 50 | 124 | 0.0 | 0.0 | 0.00 | 0.00 | 0.00 | 95 | 1007.2 |
| 20260505173612 | 50 | 132 | 0.0 | 0.0 | 0.00 | 0.00 | 0.00 | 94 | 1007.2 |
| 20260505173108 | 50 | 148 | 0.0 | 0.0 | 0.00 | 0.00 | 0.00 | 94 | 1007.3 |
| 20260505172606 | 50 | 96 | 0.0 | 0.0 | 0.00 | 0.00 | 0.00 | 94 | 1007.2 |
| 20260505172103 | 50 | 151 | 0.0 | 0.0 | 0.00 | 0.00 | 0.00 | 93 | 1007.6 |
| 20260505171557 | 50 | 134 | 0.0 | 0.0 | 0.00 | 0.00 | 0.00 | 93 | 1007.3 |
| 20260505171054 | 50 | 156 | 0.0 | 0.0 | 0.00 | 0.00 | 0.00 | 92 | 1007.2 |
| 20260505170545 | 50 | 169 | 0.0 | 0.0 | 0.00 | 0.00 | 0.00 | 92 | 1007.4 |
| 20260505170041 | 50 | 139 | 0.0 | 0.0 | 0.00 | 0.00 | 0.00 | 92 | 1007.2 |
| 20260505165531 | 50 | 114 | 0.0 | 0.0 | 0.00 | 0.00 | 0.00 | 91 | 1007.1 |
| 20260505165027 | 50 | 357 | 0.0 | 0.0 | 0.00 | 0.00 | 0.00 | 90 | 1007.2 |
| 20260505164523 | 50 | 28 | 0.0 | 0.0 | 0.00 | 0.00 | 0.00 | 89 | 1007.2 |
| 20260505164021 | 50 | 75 | 0.0 | 0.0 | 0.00 | 0.00 | 0.00 | 87 | 1007.4 |
| 20260505163519 | 50 | 15 | 0.0 | 0.0 | 0.00 | 0.00 | 0.00 | 87 | 1007.5 |
| 20260505163015 | 50 | 13 | 0.0 | 0.0 | 0.00 | 0.00 | 0.00 | 88 | 1007.6 |
| 20260505162509 | 51 | 89 | 0.0 | 0.0 | 0.00 | 0.00 | 0.00 | 91 | 1007.4 |
| 20260505162006 | 51 | 67 | 0.0 | 0.0 | 0.00 | 0.00 | 0.00 | 93 | 1007.6 |
| 20260505161502 | 51 | 35 | 0.0 | 0.0 | 0.00 | 0.00 | 0.00 | 94 | 1007.3 |
| 20260505160959 | 52 | 346 | 0.0 | 0.0 | 0.00 | 0.00 | 0.00 | 94 | 1007.6 |
| 20260505160457 | 51 | 334 | 0.0 | 0.0 | 0.00 | 0.00 | 0.00 | 94 | 1007.6 |
| 20260505152928 | 52 | 322 | 3.0 | 3.0 | 0.00 | 0.00 | 0.00 | 95 | 1007.2 |
| 20260505152420 | 52 | 327 | 3.0 | 3.0 | 0.00 | 0.00 | 0.00 | 96 | 1007.2 |
| 20260505151919 | 54 | 306 | 2.0 | 3.0 | 0.00 | 0.00 | 0.00 | 97 | 1007.4 |
| 20260505151416 | 54 | 280 | 3.0 | 3.0 | 0.00 | 0.00 | 0.00 | 99 | 1007.4 |
| 20260505150913 | 55 | 268 | 2.0 | 2.0 | 0.00 | 0.00 | 0.00 | 99 | 1007.3 |
| 20260505150410 | 56 | 236 | 0.0 | 0.0 | 0.00 | 0.00 | 0.00 | 99 | 1007.2 |
| 20260505140335 | 57 | 181 | 0.0 | 0.0 | 0.00 | 0.00 | 0.00 | 98 | 1006.5 |
| 20260505130258 | 57 | 151 | 0.0 | 0.0 | 0.00 | 0.00 | 0.00 | 97 | 1006.0 |
| 20260505124748 | 57 | 172 | 0.0 | 0.0 | 0.00 | 0.00 | 0.00 | 98 | 1005.9 |
| 20260505124245 | 57 | 215 | 0.0 | 0.0 | 0.00 | 0.00 | 0.00 | 98 | 1005.9 |
| 20260505123740 | 57 | 188 | 0.0 | 0.0 | 0.00 | 0.00 | 0.00 | 98 | 1005.8 |
| 20260505123238 | 56 | 168 | 0.0 | 0.0 | 0.00 | 0.00 | 0.00 | 98 | 1005.8 |
| 20260505122734 | 56 | 148 | 0.0 | 0.0 | 0.00 | 0.00 | 0.00 | 98 | 1006.0 |
| 20260505122231 | 56 | 167 | 0.0 | 0.0 | 0.00 | 0.00 | 0.00 | 99 | 1005.9 |
| 20260505121728 | 56 | 154 | 0.0 | 0.0 | 0.00 | 0.00 | 0.00 | 99 | 1005.7 |
| 20260505121225 | 56 | 190 | 0.0 | 0.0 | 0.00 | 0.00 | 0.00 | 99 | 1005.8 |
| 20260505120721 | 56 | 158 | 0.0 | 0.0 | 0.00 | 0.00 | 0.00 | 99 | 1005.5 |
| 20260505120217 | 56 | 150 | 0.0 | 0.0 | 0.00 | 0.00 | 0.00 | 99 | 1005.6 |
| 20260505115716 | 56 | 139 | 0.0 | 0.0 | 0.00 | 0.00 | 0.00 | 99 | 1005.3 |
| 20260505115214 | 56 | 152 | 0.0 | 0.0 | 0.00 | 0.00 | 0.00 | 99 | 1005.3 |
| 20260505114711 | 55 | 176 | 0.0 | 0.0 | 0.00 | 0.00 | 0.00 | 99 | 1005.1 |
| 20260505114207 | 55 | 151 | 0.0 | 0.0 | 0.00 | 0.00 | 0.00 | 99 | 1004.7 |
| 20260505113703 | 55 | 143 | 0.0 | 0.0 | 0.00 | 0.00 | 0.00 | 99 | 1005.1 |
| 20260505113200 | 55 | 153 | 0.0 | 0.0 | 0.00 | 0.00 | 0.00 | 99 | 1004.8 |
| 20260505112656 | 55 | 152 | 0.0 | 0.0 | 0.00 | 0.00 | 0.00 | 99 | 1004.7 |
| 20260505112155 | 55 | 156 | 0.0 | 0.0 | 0.00 | 0.00 | 0.00 | 99 | 1004.9 |
| 20260505111654 | 55 | 175 | 0.0 | 0.0 | 0.00 | 0.00 | 0.00 | 99 | 1005.2 |
| 20260505111150 | 55 | 165 | 0.0 | 0.0 | 0.00 | 0.00 | 0.00 | 99 | 1004.9 |
| 20260505110646 | 55 | 138 | 0.0 | 0.0 | 0.00 | 0.00 | 0.00 | 99 | 1004.6 |
| 20260505110144 | 55 | 124 | 0.0 | 0.0 | 0.00 | 0.00 | 0.00 | 99 | 1004.7 |
| 20260505102119 | 55 | 135 | 0.0 | 0.0 | 0.00 | 0.00 | 0.00 | 99 | 1004.6 |
| 20260505101618 | 55 | 152 | 0.0 | 0.0 | 0.00 | 0.00 | 0.00 | 99 | 1004.5 |
| 20260505101114 | 55 | 139 | 0.0 | 0.0 | 0.00 | 0.00 | 0.00 | 99 | 1004.4 |
| 20260505100610 | 54 | 155 | 0.0 | 0.0 | 0.00 | 0.00 | 0.00 | 99 | 1004.2 |
| 20260505100107 | 54 | 154 | 0.0 | 0.0 | 0.00 | 0.00 | 0.00 | 99 | 1004.0 |
| 20260505095603 | 55 | 164 | 0.0 | 0.0 | 0.00 | 0.00 | 0.00 | 99 | 1003.9 |
| 20260505095100 | 55 | 147 | 0.0 | 0.0 | 0.00 | 0.00 | 0.00 | 99 | 1003.9 |
| 20260505094556 | 55 | 171 | 0.0 | 0.0 | 0.00 | 0.00 | 0.00 | 99 | 1003.7 |
| 20260505094053 | 55 | 152 | 0.0 | 0.0 | 0.00 | 0.00 | 0.00 | 99 | 1003.8 |
| 20260505093549 | 55 | 158 | 0.0 | 0.0 | 0.00 | 0.00 | 0.00 | 99 | 1003.6 |
| 20260505093047 | 55 | 172 | 0.0 | 0.0 | 0.00 | 0.00 | 0.00 | 99 | 1003.6 |
| 20260505092544 | 55 | 157 | 0.0 | 0.0 | 0.00 | 0.00 | 0.00 | 99 | 1003.4 |
| 20260505092042 | 55 | 158 | 0.0 | 0.0 | 0.00 | 0.00 | 0.00 | 99 | 1003.5 |
| 20260505091539 | 55 | 146 | 0.0 | 0.0 | 0.00 | 0.00 | 0.00 | 99 | 1003.3 |
| 20260505091037 | 55 | 160 | 0.0 | 0.0 | 0.00 | 0.00 | 0.00 | 99 | 1003.3 |
| 20260505090535 | 55 | 209 | 0.0 | 0.0 | 0.00 | 0.00 | 0.00 | 99 | 1003.0 |
| 20260505090032 | 55 | 151 | 0.0 | 0.0 | 0.00 | 0.00 | 0.00 | 99 | 1002.8 |
| 20260505085530 | 55 | 164 | 0.0 | 0.0 | 0.00 | 0.00 | 0.00 | 99 | 1002.8 |
| 20260505085028 | 55 | 189 | 0.0 | 0.0 | 0.00 | 0.00 | 0.00 | 99 | 1002.8 |
| 20260505084526 | 55 | 146 | 0.0 | 0.0 | 0.00 | 0.00 | 0.00 | 99 | 1002.7 |
| 20260505084024 | 55 | 139 | 0.0 | 0.0 | 0.00 | 0.00 | 0.00 | 99 | 1002.2 |
| 20260505083521 | 55 | 138 | 0.0 | 0.0 | 0.00 | 0.00 | 0.00 | 99 | 1002.5 |
| 20260505083017 | 55 | 122 | 0.0 | 0.0 | 0.00 | 0.00 | 0.00 | 99 | 1002.5 |
| 20260505082513 | 55 | 172 | 1.0 | 3.0 | 0.00 | 0.00 | 0.00 | 99 | 1002.5 |
| 20260505082010 | 55 | 164 | 0.0 | 0.0 | 0.00 | 0.00 | 0.00 | 99 | 1002.4 |
| 20260505081506 | 55 | 92 | 0.0 | 0.0 | 0.00 | 0.00 | 0.00 | 99 | 1001.3 |
| 20260505081003 | 55 | 122 | 0.0 | 0.0 | 0.00 | 0.00 | 0.00 | 99 | 1002.5 |
| 20260505080500 | 55 | 168 | 0.0 | 1.0 | 0.00 | 0.00 | 0.00 | 99 | 1003.0 |
| 20260505075955 | 55 | 166 | 2.0 | 9.0 | 0.00 | 0.00 | 0.00 | 99 | 1003.0 |
| 20260505075452 | 55 | 179 | 0.0 | 1.0 | 0.00 | 0.00 | 0.00 | 99 | 1003.4 |
| 20260505074949 | 55 | 151 | 2.0 | 3.0 | 0.00 | 0.00 | 0.00 | 99 | 1002.7 |
| 20260505074447 | 55 | 149 | 1.0 | 4.0 | 0.00 | 0.00 | 0.00 | 99 | 1003.0 |
| 20260505073944 | 55 | 161 | 0.0 | 0.0 | 0.00 | 0.00 | 0.00 | 99 | 1005.2 |
| 20260505073441 | 55 | 99 | 0.0 | 1.0 | 0.00 | 0.00 | 0.00 | 99 | 1005.1 |
| 20260505072938 | 55 | 163 | 0.0 | 0.0 | 0.00 | 0.00 | 0.00 | 99 | 1004.7 |
| 20260505072434 | 55 | 187 | 0.0 | 1.0 | 0.00 | 0.00 | 0.00 | 99 | 1004.0 |
| 20260505071931 | 55 | 146 | 0.0 | 1.0 | 0.00 | 0.00 | 0.00 | 99 | 1004.0 |
| 20260505071427 | 55 | 155 | 0.0 | 0.0 | 0.00 | 0.00 | 0.00 | 99 | 1004.4 |
| 20260505070925 | 55 | 154 | 0.0 | 0.0 | 0.00 | 0.00 | 0.00 | 99 | 1004.4 |
| 20260505070421 | 55 | 170 | 0.0 | 0.0 | 0.00 | 0.00 | 0.00 | 99 | 1004.4 |
| 20260505065917 | 55 | 162 | 0.0 | 0.0 | 0.00 | 0.00 | 0.00 | 99 | 1004.1 |
| 20260505065414 | 55 | 158 | 0.0 | 0.0 | 0.00 | 0.00 | 0.00 | 99 | 1004.6 |
| 20260505064910 | 55 | 158 | 0.0 | 0.0 | 0.00 | 0.00 | 0.00 | 99 | 1004.6 |
| 20260505064408 | 55 | 157 | 0.0 | 0.0 | 0.00 | 0.00 | 0.00 | 99 | 1004.9 |
| 20260505063906 | 55 | 163 | 0.0 | 0.0 | 0.00 | 0.00 | 0.00 | 99 | 1004.8 |
| 20260505063402 | 55 | 163 | 0.0 | 0.0 | 0.00 | 0.00 | 0.00 | 99 | 1004.8 |
| 20260505062859 | 55 | 159 | 0.0 | 0.0 | 0.00 | 0.00 | 0.00 | 99 | 1004.8 |
| 20260505062356 | 56 | 150 | 0.0 | 0.0 | 0.00 | 0.00 | 0.00 | 99 | 1005.2 |
| 20260505061852 | 56 | 158 | 0.0 | 0.0 | 0.00 | 0.00 | 0.00 | 99 | 1005.3 |
| 20260505061351 | 56 | 162 | 0.0 | 0.0 | 0.00 | 0.00 | 0.00 | 99 | 1005.6 |
| 20260505060848 | 56 | 170 | 0.0 | 0.0 | 0.00 | 0.00 | 0.00 | 99 | 1005.4 |
| 20260505060344 | 56 | 207 | 0.0 | 0.0 | 0.00 | 0.00 | 0.00 | 98 | 1005.5 |
| 20260505055841 | 56 | 178 | 0.0 | 0.0 | 0.00 | 0.00 | 0.00 | 98 | 1005.4 |
| 20260505055336 | 56 | 178 | 0.0 | 0.0 | 0.00 | 0.00 | 0.00 | 97 | 1005.5 |
| 20260505054834 | 56 | 180 | 0.0 | 0.0 | 0.00 | 0.00 | 0.00 | 97 | 1005.5 |
| 20260505054331 | 56 | 190 | 0.0 | 0.0 | 0.00 | 0.00 | 0.00 | 96 | 1005.4 |
| 20260505053829 | 57 | 218 | 0.0 | 0.0 | 0.00 | 0.00 | 0.00 | 95 | 1005.5 |
| 20260505053326 | 57 | 251 | 1.0 | 2.0 | 0.00 | 0.00 | 0.00 | 94 | 1005.9 |
| 20260505052823 | 57 | 262 | 0.0 | 2.0 | 0.00 | 0.00 | 0.00 | 93 | 1005.8 |
| 20260505052320 | 58 | 282 | 1.0 | 2.0 | 0.00 | 0.00 | 0.00 | 91 | 1005.7 |
| 20260505051817 | 59 | 275 | 4.0 | 6.0 | 0.00 | 0.00 | 0.00 | 88 | 1005.4 |
| 20260505051314 | 59 | 276 | 9.0 | 14.0 | 0.00 | 0.00 | 0.00 | 86 | 1005.3 |
| 20260505050812 | 61 | 318 | 4.0 | 6.0 | 0.00 | 0.00 | 0.00 | 83 | 1004.8 |
| 20260505050311 | 62 | 320 | 4.0 | 4.0 | 0.00 | 0.00 | 0.00 | 79 | 1004.3 |
| 20260505041740 | 68 | 165 | 0.0 | 0.0 | 0.00 | 0.00 | 0.00 | 59 | 1001.3 |
| 20260505041237 | 67 | 184 | 0.0 | 1.0 | 0.00 | 0.00 | 0.00 | 59 | 1001.2 |
| 20260505040735 | 67 | 154 | 0.0 | 0.0 | 0.00 | 0.00 | 0.00 | 60 | 1001.1 |
| 20260505040232 | 67 | 158 | 0.0 | 0.0 | 0.00 | 0.00 | 0.00 | 60 | 1001.3 |
| 20260505035729 | 67 | 283 | 0.0 | 0.0 | 0.00 | 0.00 | 0.00 | 61 | 1001.2 |
| 20260505035225 | 67 | 156 | 0.0 | 0.0 | 0.00 | 0.00 | 0.00 | 61 | 1001.3 |
| 20260505034722 | 67 | 147 | 0.0 | 0.0 | 0.00 | 0.00 | 0.00 | 60 | 1001.2 |
| 20260505034219 | 67 | 175 | 0.0 | 0.0 | 0.00 | 0.00 | 0.00 | 61 | 1001.1 |
| 20260505033715 | 67 | 119 | 0.0 | 0.0 | 0.00 | 0.00 | 0.00 | 62 | 1001.3 |
| 20260505033213 | 67 | 247 | 0.0 | 0.0 | 0.00 | 0.00 | 0.00 | 61 | 1001.3 |
| 20260505032711 | 67 | 154 | 0.0 | 0.0 | 0.00 | 0.00 | 0.00 | 62 | 1001.3 |
| 20260505032206 | 67 | 150 | 0.0 | 0.0 | 0.00 | 0.00 | 0.00 | 61 | 1001.4 |
| 20260505031704 | 67 | 175 | 0.0 | 0.0 | 0.00 | 0.00 | 0.00 | 62 | 1001.5 |
| 20260505031200 | 68 | 226 | 0.0 | 0.0 | 0.00 | 0.00 | 0.00 | 61 | 1001.4 |
| 20260505030657 | 67 | 142 | 0.0 | 0.0 | 0.00 | 0.00 | 0.00 | 62 | 1001.5 |
| 20260505030153 | 68 | 162 | 0.0 | 0.0 | 0.00 | 0.00 | 0.00 | 62 | 1001.5 |
| 20260505025649 | 68 | 176 | 0.0 | 0.0 | 0.00 | 0.00 | 0.00 | 62 | 1001.4 |
| 20260505025148 | 68 | 143 | 0.0 | 0.0 | 0.00 | 0.00 | 0.00 | 62 | 1001.7 |
| 20260505024645 | 68 | 173 | 0.0 | 0.0 | 0.00 | 0.00 | 0.00 | 62 | 1001.6 |
| 20260505024142 | 68 | 157 | 0.0 | 0.0 | 0.00 | 0.00 | 0.00 | 62 | 1001.9 |
| 20260505023640 | 68 | 156 | 0.0 | 0.0 | 0.00 | 0.00 | 0.00 | 62 | 1001.7 |
| 20260505023137 | 68 | 159 | 0.0 | 0.0 | 0.00 | 0.00 | 0.00 | 62 | 1001.8 |
| 20260505022634 | 68 | 166 | 0.0 | 0.0 | 0.00 | 0.00 | 0.00 | 62 | 1001.7 |
| 20260505022131 | 68 | 142 | 0.0 | 0.0 | 0.00 | 0.00 | 0.00 | 62 | 1001.7 |
| 20260505021628 | 68 | 163 | 0.0 | 0.0 | 0.00 | 0.00 | 0.00 | 62 | 1001.8 |
| 20260505021125 | 68 | 158 | 0.0 | 0.0 | 0.00 | 0.00 | 0.00 | 62 | 1001.8 |
| 20260505020620 | 68 | 158 | 0.0 | 0.0 | 0.00 | 0.00 | 0.00 | 62 | 1001.7 |
| 20260505020116 | 68 | 147 | 0.0 | 0.0 | 0.00 | 0.00 | 0.00 | 62 | 1001.9 |
| 20260505015614 | 68 | 146 | 0.0 | 0.0 | 0.00 | 0.00 | 0.00 | 62 | 1001.7 |
| 20260505015110 | 68 | 134 | 0.0 | 0.0 | 0.00 | 0.00 | 0.00 | 61 | 1001.6 |
| 20260505014607 | 68 | 149 | 0.0 | 0.0 | 0.00 | 0.00 | 0.00 | 61 | 1001.4 |
| 20260505014104 | 68 | 141 | 0.0 | 0.0 | 0.00 | 0.00 | 0.00 | 62 | 1001.5 |
| 20260505013601 | 68 | 198 | 0.0 | 0.0 | 0.00 | 0.00 | 0.00 | 61 | 1001.4 |
| 20260505013059 | 68 | 260 | 0.0 | 0.0 | 0.00 | 0.00 | 0.00 | 61 | 1001.3 |